Location: Bushey
(51.6333°N, 0.3667°W)
Time: 18:07:11
(UTC+00:00)

ATLAS CENTAUR R/B - Pass Details

Date: 03 March 2021
Orbit: 475 x 670 km, 64.7° (Epoch: 30 March)

Event Time Altitude Azimuth Distance (km) Brightness Sun altitude
Rises 18:19:38 0° 174° (S) 2,519 4.7 -6.1°
Reaches altitude 10° 18:22:27 10° 150° (SSE) 1,641 3.5 -6.5°
Maximum altitude 18:24:33 15° 114° (ESE) 1,375 2.8 -6.9°
Drops below altitude 10° 18:26:40 10° 79° (E) 1,656 3.1 -7.2°
Enters shadow 18:27:02 - 75° (ENE) 1,750 3.3 -7.2°
